星链-33570 (STARLINK-33570)

导读

STARLINK-33570是美国太空探索技术公司SpaceX于2025年1月21日发射的星链卫星,属于星链全球卫星互联网星座的组成部分。星链星座旨在为全球尤其是基础设施匮乏地区提供高速低延迟宽带服务,这类低轨卫星采用平板设计,搭载霍尔推进器,具备自主避撞能力,寿命末期会主动离轨坠入大气层烧毁。

Basic Information
目录编号:
62776
目录名称:
STARLINK-33570
国际标识:
2025-015U
轨道中心:
EARTH
卫星名称:
星链-33570
卫星全名:
星链-33570 (STARLINK-33570)
卫星状态:
在轨 (已飞行509 天)
发射日期:
2025-01-21 UTC
国别 :
美国 (US)
星等 :
--
Orbit Information
数据来源 国际轨道数据 AOE轨道数据
星历时间 2026-06-13T19:40:52+0800
21小时前
查看轨道信息
2026-06-09T11:00:00+0800
5天前
查看轨道信息
半长轴 6840.957km 6840.856km
偏心率 0.0001542 0.0001766
轨道倾角 53.160° 53.159°
近地点辐角 95.422° 100.731°
升交点赤经 236.390° 256.775°
平近点角 264.696° 272.616°
近地点 461.765km 461.51km
远地点 463.875km 463.928km
周期 93.850分钟 93.848分钟
每日圈数 15.34361 15.343948
Detailed Information
固有亮度:
5
最大亮度:
2.5
卫星平台:
Starlink V1.0
覆盖范围:
全球
运营商:
太空探索技术公司
运营商所在国:
美国
制造商(研发单位):
太空探索技术公司
制造商所在国:
美国
使用方式:
暂无
Satellite Introduction
Starlink 计划是 SpaceX 推出的全球卫星互联网项目,通过发射低轨道卫星,为全球尤其是偏远地区提供高速、低延迟的互联网服务。自 2019 年起,Starlink 已部署数千颗卫星,旨在缩小全球数字鸿沟,推动互联网普及。该项目还为军事、航空等行业提供通信支持,带来广泛经济效益。
2D Orbit Map
3D Orbit Map
Orbit Altitude Analysis Chart
Orbit Inclination Analysis Chart
Orbit Comprehensive Analysis Chart
View Comprehensive Chart